Year,Month,Day,Hour,Minute,Value (Times are PST for windspeed in km/hr)
2015,08,28,00,00,0.00
2015,08,28,00,01,0.00
2015,08,28,00,02,0.00
2015,08,28,00,03,1.70
2015,08,28,00,04,0.40
2015,08,28,00,05,0.50
2015,08,28,00,06,1.70
2015,08,28,00,07,1.00
2015,08,28,00,08,0.20
2015,08,28,00,09,0.00
2015,08,28,00,10,0.10
2015,08,28,00,11,0.00
2015,08,28,00,12,0.00
2015,08,28,00,13,0.00
2015,08,28,00,14,1.90
2015,08,28,00,15,1.70
2015,08,28,00,16,0.80
2015,08,28,00,17,0.00
2015,08,28,00,18,0.00
2015,08,28,00,19,1.20
2015,08,28,00,20,1.90
2015,08,28,00,21,0.90
2015,08,28,00,22,0.50
2015,08,28,00,23,0.00
2015,08,28,00,24,0.00
2015,08,28,00,25,0.00
2015,08,28,00,26,0.00
2015,08,28,00,27,0.00
2015,08,28,00,28,1.80
2015,08,28,00,29,0.80
2015,08,28,00,30,0.20
2015,08,28,00,31,1.80
2015,08,28,00,32,1.70
2015,08,28,00,33,1.60
2015,08,28,00,34,0.90
2015,08,28,00,35,0.00
2015,08,28,00,36,0.00
2015,08,28,00,37,0.00
2015,08,28,00,38,1.70
2015,08,28,00,39,2.50
2015,08,28,00,40,0.40
2015,08,28,00,41,0.50
2015,08,28,00,42,0.10
2015,08,28,00,43,0.50
2015,08,28,00,44,0.00
2015,08,28,00,45,0.00
2015,08,28,00,46,0.00
2015,08,28,00,47,0.00
2015,08,28,00,48,0.00
2015,08,28,00,49,0.00
2015,08,28,00,50,0.50
2015,08,28,00,51,0.90
2015,08,28,00,52,0.50
2015,08,28,00,53,0.20
2015,08,28,00,54,0.10
2015,08,28,00,55,0.00
2015,08,28,00,56,0.60
2015,08,28,00,57,1.40
2015,08,28,00,58,0.80
2015,08,28,00,59,1.00
2015,08,28,01,00,0.80
2015,08,28,01,01,0.60
2015,08,28,01,02,1.10
2015,08,28,01,03,1.40
2015,08,28,01,04,1.20
2015,08,28,01,05,0.70
2015,08,28,01,06,0.00
2015,08,28,01,07,0.00
2015,08,28,01,08,0.00
2015,08,28,01,09,0.00
2015,08,28,01,10,0.00
2015,08,28,01,11,0.00
2015,08,28,01,12,0.00
2015,08,28,01,13,1.60
2015,08,28,01,14,0.40
2015,08,28,01,15,0.00
2015,08,28,01,16,0.00
2015,08,28,01,17,0.00
2015,08,28,01,18,0.00
2015,08,28,01,19,0.00
2015,08,28,01,20,0.00
2015,08,28,01,21,2.00
2015,08,28,01,22,2.60
2015,08,28,01,23,2.90
2015,08,28,01,24,4.60
2015,08,28,01,25,2.80
2015,08,28,01,26,1.70
2015,08,28,01,27,3.00
2015,08,28,01,28,1.70
2015,08,28,01,29,1.00
2015,08,28,01,30,0.10
2015,08,28,01,31,0.00
2015,08,28,01,32,0.90
2015,08,28,01,33,1.90
2015,08,28,01,34,1.00
2015,08,28,01,35,1.50
2015,08,28,01,36,1.20
2015,08,28,01,37,0.40
2015,08,28,01,38,2.80
2015,08,28,01,39,0.90
2015,08,28,01,40,0.60
2015,08,28,01,41,0.00
2015,08,28,01,42,1.20
2015,08,28,01,43,1.50
2015,08,28,01,44,1.20
2015,08,28,01,45,0.90
2015,08,28,01,46,0.00
2015,08,28,01,47,0.00
2015,08,28,01,48,0.00
2015,08,28,01,49,0.00
2015,08,28,01,50,0.00
2015,08,28,01,51,0.00
2015,08,28,01,52,0.00
2015,08,28,01,53,0.00
2015,08,28,01,54,0.00
2015,08,28,01,55,1.00
2015,08,28,01,56,1.80
2015,08,28,01,57,1.90
2015,08,28,01,58,1.50
2015,08,28,01,59,1.50
2015,08,28,02,00,0.20
2015,08,28,02,01,0.00
2015,08,28,02,02,0.00
2015,08,28,02,03,0.00
2015,08,28,02,04,0.00
2015,08,28,02,05,0.00
2015,08,28,02,06,0.00
2015,08,28,02,07,0.00
2015,08,28,02,08,0.00
2015,08,28,02,09,0.00
2015,08,28,02,10,0.00
2015,08,28,02,11,0.00
2015,08,28,02,12,0.00
2015,08,28,02,13,0.00
2015,08,28,02,14,0.00
2015,08,28,02,15,0.00
2015,08,28,02,16,0.00
2015,08,28,02,17,0.00
2015,08,28,02,18,0.00
2015,08,28,02,19,0.00
2015,08,28,02,20,0.00
2015,08,28,02,21,0.00
2015,08,28,02,22,0.00
2015,08,28,02,23,0.00
2015,08,28,02,24,0.00
2015,08,28,02,25,0.00
2015,08,28,02,26,0.00
2015,08,28,02,27,0.00
2015,08,28,02,28,0.00
2015,08,28,02,29,0.00
2015,08,28,02,30,0.00
2015,08,28,02,31,0.00
2015,08,28,02,32,0.00
2015,08,28,02,33,0.00
2015,08,28,02,34,0.00
2015,08,28,02,35,0.00
2015,08,28,02,36,0.00
2015,08,28,02,37,0.00
2015,08,28,02,38,0.00
2015,08,28,02,39,0.00
2015,08,28,02,40,0.00
2015,08,28,02,41,0.70
2015,08,28,02,42,1.40
2015,08,28,02,43,1.20
2015,08,28,02,44,0.10
2015,08,28,02,45,0.20
2015,08,28,02,46,0.20
2015,08,28,02,47,0.90
2015,08,28,02,48,1.40
2015,08,28,02,49,0.00
2015,08,28,02,50,0.30
2015,08,28,02,51,0.40
2015,08,28,02,52,0.10
2015,08,28,02,53,2.20
2015,08,28,02,54,2.10
2015,08,28,02,55,2.00
2015,08,28,02,56,2.20
2015,08,28,02,57,0.90
2015,08,28,02,58,2.00
2015,08,28,02,59,1.90
2015,08,28,03,00,1.70
2015,08,28,03,01,1.40
2015,08,28,03,02,0.80
2015,08,28,03,03,1.90
2015,08,28,03,04,1.00
2015,08,28,03,05,0.50
2015,08,28,03,06,1.20
2015,08,28,03,07,0.70
2015,08,28,03,08,1.40
2015,08,28,03,09,1.30
2015,08,28,03,10,0.90
2015,08,28,03,11,2.80
2015,08,28,03,12,1.30
2015,08,28,03,13,2.10
2015,08,28,03,14,2.10
2015,08,28,03,15,2.10
2015,08,28,03,16,2.00
2015,08,28,03,17,2.60
2015,08,28,03,18,3.10
2015,08,28,03,19,3.00
2015,08,28,03,20,4.20
2015,08,28,03,21,3.90
2015,08,28,03,22,4.10
2015,08,28,03,23,6.00
2015,08,28,03,24,6.20
2015,08,28,03,25,5.70
2015,08,28,03,26,5.20
2015,08,28,03,27,7.80
2015,08,28,03,28,6.70
2015,08,28,03,29,4.40
2015,08,28,03,30,5.20
2015,08,28,03,31,6.30
2015,08,28,03,32,7.60
2015,08,28,03,33,5.10
2015,08,28,03,34,2.70
2015,08,28,03,35,5.40
2015,08,28,03,36,4.80
2015,08,28,03,37,5.20
2015,08,28,03,38,4.90
2015,08,28,03,39,5.00
2015,08,28,03,40,6.00
2015,08,28,03,41,4.60
2015,08,28,03,42,2.60
2015,08,28,03,43,3.60
2015,08,28,03,44,4.50
2015,08,28,03,45,2.40
2015,08,28,03,46,3.20
2015,08,28,03,47,2.40
2015,08,28,03,48,5.70
2015,08,28,03,49,2.60
2015,08,28,03,50,4.90
2015,08,28,03,51,5.80
2015,08,28,03,52,4.80
2015,08,28,03,53,5.60
2015,08,28,03,54,3.60
2015,08,28,03,55,3.50
2015,08,28,03,56,5.80
2015,08,28,03,57,4.20
2015,08,28,03,58,3.90
2015,08,28,03,59,3.70
2015,08,28,04,00,3.80
2015,08,28,04,01,3.60
2015,08,28,04,02,3.70
2015,08,28,04,03,3.30
2015,08,28,04,04,3.70
2015,08,28,04,05,4.20
2015,08,28,04,06,2.40
2015,08,28,04,07,3.20
2015,08,28,04,08,4.60
2015,08,28,04,09,2.40
2015,08,28,04,10,3.20
2015,08,28,04,11,4.30
2015,08,28,04,12,3.10
2015,08,28,04,13,3.20
2015,08,28,04,14,2.20
2015,08,28,04,15,2.10
2015,08,28,04,16,4.50
2015,08,28,04,17,3.20
2015,08,28,04,18,3.20
2015,08,28,04,19,2.90
2015,08,28,04,20,2.30
2015,08,28,04,21,2.70
2015,08,28,04,22,2.90
2015,08,28,04,23,2.40
2015,08,28,04,24,2.70
2015,08,28,04,25,2.30
2015,08,28,04,26,3.60
2015,08,28,04,27,3.20
2015,08,28,04,28,1.80
2015,08,28,04,29,1.40
2015,08,28,04,30,1.00
2015,08,28,04,31,0.80
2015,08,28,04,32,1.30
2015,08,28,04,33,1.50
2015,08,28,04,34,1.30
2015,08,28,04,35,0.70
2015,08,28,04,36,0.80
2015,08,28,04,37,0.90
2015,08,28,04,38,1.30
2015,08,28,04,39,0.70
2015,08,28,04,40,0.40
2015,08,28,04,41,1.30
2015,08,28,04,42,0.90
2015,08,28,04,43,0.40
2015,08,28,04,44,1.00
2015,08,28,04,45,0.10
2015,08,28,04,46,0.00
2015,08,28,04,47,0.00
2015,08,28,04,48,0.20
2015,08,28,04,49,0.00
2015,08,28,04,50,0.00
2015,08,28,04,51,0.00
2015,08,28,04,52,0.00
2015,08,28,04,53,0.00
2015,08,28,04,54,0.00
2015,08,28,04,55,0.00
2015,08,28,04,56,0.00
2015,08,28,04,57,0.00
2015,08,28,04,58,0.00
2015,08,28,04,59,0.00
2015,08,28,05,00,0.00
2015,08,28,05,01,0.00
2015,08,28,05,02,0.00
2015,08,28,05,03,0.00
2015,08,28,05,04,0.00
2015,08,28,05,05,0.00
2015,08,28,05,06,0.00
2015,08,28,05,07,0.00
2015,08,28,05,08,0.00
2015,08,28,05,09,0.00
2015,08,28,05,10,0.00
2015,08,28,05,11,0.00
2015,08,28,05,12,0.00
2015,08,28,05,13,0.00
2015,08,28,05,14,0.00
2015,08,28,05,15,0.00
2015,08,28,05,16,0.00
2015,08,28,05,17,0.00
2015,08,28,05,18,0.00
2015,08,28,05,19,0.00
2015,08,28,05,20,0.00
2015,08,28,05,21,0.00
2015,08,28,05,22,0.00
2015,08,28,05,23,0.00
2015,08,28,05,24,0.00
2015,08,28,05,25,0.00
2015,08,28,05,26,0.00
2015,08,28,05,27,0.00
2015,08,28,05,28,0.00
2015,08,28,05,29,0.30
2015,08,28,05,30,1.80
2015,08,28,05,31,1.40
2015,08,28,05,32,1.00
2015,08,28,05,33,0.00
2015,08,28,05,34,0.70
2015,08,28,05,35,1.30
2015,08,28,05,36,2.10
2015,08,28,05,37,3.00
2015,08,28,05,38,3.00
2015,08,28,05,39,2.40
2015,08,28,05,40,1.90
2015,08,28,05,41,2.00
2015,08,28,05,42,2.10
2015,08,28,05,43,1.10
2015,08,28,05,44,1.30
2015,08,28,05,45,1.30
2015,08,28,05,46,1.40
2015,08,28,05,47,0.50
2015,08,28,05,48,0.70
2015,08,28,05,49,0.50
2015,08,28,05,50,2.00
2015,08,28,05,51,2.70
2015,08,28,05,52,1.50
2015,08,28,05,53,0.80
2015,08,28,05,54,2.00
2015,08,28,05,55,2.50
2015,08,28,05,56,1.70
2015,08,28,05,57,2.30
2015,08,28,05,58,1.30
2015,08,28,05,59,0.30
2015,08,28,06,00,0.50
2015,08,28,06,01,0.00
2015,08,28,06,02,0.80
2015,08,28,06,03,1.60
2015,08,28,06,04,1.60
2015,08,28,06,05,2.30
2015,08,28,06,06,3.30
2015,08,28,06,07,1.80
2015,08,28,06,08,2.50
2015,08,28,06,09,1.10
2015,08,28,06,10,1.20
2015,08,28,06,11,1.30
2015,08,28,06,12,1.80
2015,08,28,06,13,1.50
2015,08,28,06,14,0.20
2015,08,28,06,15,0.70
2015,08,28,06,16,0.90
2015,08,28,06,17,1.30
2015,08,28,06,18,2.80
2015,08,28,06,19,0.70
2015,08,28,06,20,3.30
2015,08,28,06,21,1.00
2015,08,28,06,22,1.30
2015,08,28,06,23,3.10
2015,08,28,06,24,2.80
2015,08,28,06,25,3.20
2015,08,28,06,26,2.30
2015,08,28,06,27,3.30
2015,08,28,06,28,2.00
2015,08,28,06,29,2.60
2015,08,28,06,30,3.30
2015,08,28,06,31,3.60
2015,08,28,06,32,2.10
2015,08,28,06,33,1.30
2015,08,28,06,34,0.20
2015,08,28,06,35,1.30
2015,08,28,06,36,0.90
2015,08,28,06,37,2.60
2015,08,28,06,38,0.70
2015,08,28,06,39,5.70
2015,08,28,06,40,2.00
2015,08,28,06,41,2.60
2015,08,28,06,42,0.10
2015,08,28,06,43,0.20
2015,08,28,06,44,2.00
2015,08,28,06,45,3.60
2015,08,28,06,46,1.10
2015,08,28,06,47,0.70
2015,08,28,06,48,1.00
2015,08,28,06,49,1.10
2015,08,28,06,50,2.00
2015,08,28,06,51,3.90
2015,08,28,06,52,1.80
2015,08,28,06,53,4.20
2015,08,28,06,54,2.20
2015,08,28,06,55,1.70
2015,08,28,06,56,4.00
2015,08,28,06,57,1.30
2015,08,28,06,58,4.00
2015,08,28,06,59,5.40
2015,08,28,07,00,4.80
2015,08,28,07,01,4.30
2015,08,28,07,02,5.20
2015,08,28,07,03,4.90
2015,08,28,07,04,5.60
2015,08,28,07,05,7.70
2015,08,28,07,06,3.90
2015,08,28,07,07,2.10
2015,08,28,07,08,3.30
2015,08,28,07,09,3.10
2015,08,28,07,10,2.10
2015,08,28,07,11,0.60
2015,08,28,07,12,0.80
2015,08,28,07,13,0.70
2015,08,28,07,14,2.60
2015,08,28,07,15,3.40
2015,08,28,07,16,4.10
2015,08,28,07,17,2.90
2015,08,28,07,18,3.80
2015,08,28,07,19,2.10
2015,08,28,07,20,4.50
2015,08,28,07,21,3.20
2015,08,28,07,22,6.00
2015,08,28,07,23,6.40
2015,08,28,07,24,3.30
2015,08,28,07,25,4.00
2015,08,28,07,26,4.10
2015,08,28,07,27,3.00
2015,08,28,07,28,5.10
2015,08,28,07,29,4.00
2015,08,28,07,30,7.40
2015,08,28,07,31,5.10
2015,08,28,07,32,4.70
2015,08,28,07,33,4.50
2015,08,28,07,34,4.80
2015,08,28,07,35,3.70
2015,08,28,07,36,3.50
2015,08,28,07,37,7.20
2015,08,28,07,38,4.30
2015,08,28,07,39,5.40
2015,08,28,07,40,5.00
2015,08,28,07,41,6.20
2015,08,28,07,42,6.60
2015,08,28,07,43,4.90
2015,08,28,07,44,3.70
2015,08,28,07,45,4.40
2015,08,28,07,46,4.30
2015,08,28,07,47,4.30
2015,08,28,07,48,1.60
2015,08,28,07,49,0.90
2015,08,28,07,50,0.70
2015,08,28,07,51,0.60
2015,08,28,07,52,0.10
2015,08,28,07,53,0.00
2015,08,28,07,54,0.00
2015,08,28,07,55,1.00
2015,08,28,07,56,1.60
2015,08,28,07,57,1.30
2015,08,28,07,58,0.80
2015,08,28,07,59,0.10
2015,08,28,08,00,0.00
2015,08,28,08,01,0.00
2015,08,28,08,02,0.00
2015,08,28,08,03,0.80
2015,08,28,08,04,1.90
2015,08,28,08,05,1.00
2015,08,28,08,06,0.50
2015,08,28,08,07,0.50
2015,08,28,08,08,1.30
2015,08,28,08,09,1.00
2015,08,28,08,10,1.60
2015,08,28,08,11,0.40
2015,08,28,08,12,0.50
2015,08,28,08,13,1.30
2015,08,28,08,14,0.10
2015,08,28,08,15,2.80
2015,08,28,08,16,2.20
2015,08,28,08,17,1.20
2015,08,28,08,18,0.50
2015,08,28,08,19,2.20
2015,08,28,08,20,2.10
2015,08,28,08,21,3.00
2015,08,28,08,22,1.40
2015,08,28,08,23,2.60
2015,08,28,08,24,2.50
2015,08,28,08,25,1.40
2015,08,28,08,26,1.70
2015,08,28,08,27,2.40
2015,08,28,08,28,2.40
2015,08,28,08,29,1.20
2015,08,28,08,30,1.30
2015,08,28,08,31,1.40
2015,08,28,08,32,0.40
2015,08,28,08,33,1.10
2015,08,28,08,34,0.80
2015,08,28,08,35,1.50
2015,08,28,08,36,1.70
2015,08,28,08,37,1.00
2015,08,28,08,38,2.50
2015,08,28,08,39,4.50
2015,08,28,08,40,3.80
2015,08,28,08,41,4.60
2015,08,28,08,42,2.70
2015,08,28,08,43,5.90
2015,08,28,08,44,6.80
2015,08,28,08,45,6.10
2015,08,28,08,46,5.40
2015,08,28,08,47,6.10
2015,08,28,08,48,4.80
2015,08,28,08,49,7.20
2015,08,28,08,50,5.60
2015,08,28,08,51,7.50
2015,08,28,08,52,7.10
2015,08,28,08,53,4.70
2015,08,28,08,54,6.40
2015,08,28,08,55,9.00
2015,08,28,08,56,8.00
2015,08,28,08,57,6.30
2015,08,28,08,58,4.20
2015,08,28,08,59,3.20
2015,08,28,09,00,2.70
2015,08,28,09,01,6.90
2015,08,28,09,02,4.90
2015,08,28,09,03,2.30
2015,08,28,09,04,6.30
2015,08,28,09,05,3.00
2015,08,28,09,06,3.00
2015,08,28,09,07,3.30
2015,08,28,09,08,5.40
2015,08,28,09,09,7.00
2015,08,28,09,10,7.10
2015,08,28,09,11,7.20
2015,08,28,09,12,5.50
2015,08,28,09,13,7.00
2015,08,28,09,14,7.10
2015,08,28,09,15,3.10
2015,08,28,09,16,1.90
2015,08,28,09,17,5.50
2015,08,28,09,18,6.10
2015,08,28,09,19,4.20
2015,08,28,09,20,3.30
2015,08,28,09,21,10.70
2015,08,28,09,22,5.40
2015,08,28,09,23,7.00
2015,08,28,09,24,6.10
2015,08,28,09,25,2.10
2015,08,28,09,26,8.80
2015,08,28,09,27,6.30
2015,08,28,09,28,8.60
2015,08,28,09,29,4.30
2015,08,28,09,30,8.50
2015,08,28,09,31,7.90
2015,08,28,09,32,6.70
2015,08,28,09,33,8.70
2015,08,28,09,34,7.40
2015,08,28,09,35,7.20
2015,08,28,09,36,6.30
2015,08,28,09,37,8.90
2015,08,28,09,38,11.60
2015,08,28,09,39,8.30
2015,08,28,09,40,7.20
2015,08,28,09,41,11.60
2015,08,28,09,42,12.60
2015,08,28,09,43,7.70
2015,08,28,09,44,11.70
2015,08,28,09,45,7.30
2015,08,28,09,46,7.90
2015,08,28,09,47,9.90
2015,08,28,09,48,12.90
2015,08,28,09,49,17.10
2015,08,28,09,50,11.00
2015,08,28,09,51,13.40
2015,08,28,09,52,8.30
2015,08,28,09,53,9.10
2015,08,28,09,54,6.60
2015,08,28,09,55,10.50
2015,08,28,09,56,13.00
2015,08,28,09,57,9.00
2015,08,28,09,58,6.00
2015,08,28,09,59,15.00
2015,08,28,10,00,7.70
2015,08,28,10,01,7.80
2015,08,28,10,02,7.30
2015,08,28,10,03,11.00
2015,08,28,10,04,8.20
2015,08,28,10,05,10.50
2015,08,28,10,06,11.30
2015,08,28,10,07,12.40
2015,08,28,10,08,11.60
2015,08,28,10,09,10.00
2015,08,28,10,10,9.00
2015,08,28,10,11,8.30
2015,08,28,10,12,9.60
2015,08,28,10,13,11.30
2015,08,28,10,14,11.20
2015,08,28,10,15,9.40
2015,08,28,10,16,13.10
2015,08,28,10,17,9.20
2015,08,28,10,18,12.60
2015,08,28,10,19,8.60
2015,08,28,10,20,10.40
2015,08,28,10,21,11.80
2015,08,28,10,22,9.50
2015,08,28,10,23,10.50
2015,08,28,10,24,8.90
2015,08,28,10,25,11.30
2015,08,28,10,26,11.70
2015,08,28,10,27,7.20
2015,08,28,10,28,12.50
2015,08,28,10,29,12.50
2015,08,28,10,30,14.30
2015,08,28,10,31,11.00
2015,08,28,10,32,8.10
2015,08,28,10,33,6.50
2015,08,28,10,34,12.90
2015,08,28,10,35,13.20
2015,08,28,10,36,8.90
2015,08,28,10,37,11.70
2015,08,28,10,38,10.90
2015,08,28,10,39,15.20
2015,08,28,10,40,10.90
2015,08,28,10,41,6.60
2015,08,28,10,42,10.90
2015,08,28,10,43,11.00
2015,08,28,10,44,9.40
2015,08,28,10,45,11.70
2015,08,28,10,46,7.40
2015,08,28,10,47,5.50
2015,08,28,10,48,8.60
2015,08,28,10,49,7.60
2015,08,28,10,50,7.20
2015,08,28,10,51,4.10
2015,08,28,10,52,9.40
2015,08,28,10,53,8.00
2015,08,28,10,54,9.30
2015,08,28,10,55,10.70
2015,08,28,10,56,9.40
2015,08,28,10,57,7.20
2015,08,28,10,58,12.00
2015,08,28,10,59,14.40
2015,08,28,11,00,9.40
2015,08,28,11,01,9.30
2015,08,28,11,02,10.20
2015,08,28,11,03,8.50
2015,08,28,11,04,7.80
2015,08,28,11,05,12.20
2015,08,28,11,06,10.90
2015,08,28,11,07,10.00
2015,08,28,11,08,10.80
2015,08,28,11,09,16.30
2015,08,28,11,10,11.40
2015,08,28,11,11,11.80
2015,08,28,11,12,12.50
2015,08,28,11,13,11.10
2015,08,28,11,14,13.20
2015,08,28,11,15,10.30
2015,08,28,11,16,11.60
2015,08,28,11,17,12.30
2015,08,28,11,18,12.70
2015,08,28,11,19,8.30
2015,08,28,11,20,9.90
2015,08,28,11,21,6.60
2015,08,28,11,22,15.50
2015,08,28,11,23,11.10
2015,08,28,11,24,12.30
2015,08,28,11,25,5.80
2015,08,28,11,26,13.90
2015,08,28,11,27,12.00
2015,08,28,11,28,10.60
2015,08,28,11,29,5.80
2015,08,28,11,30,7.50
2015,08,28,11,31,14.10
2015,08,28,11,32,11.70
2015,08,28,11,33,14.00
2015,08,28,11,34,10.60
2015,08,28,11,35,8.30
2015,08,28,11,36,9.10
2015,08,28,11,37,8.80
2015,08,28,11,38,12.20
2015,08,28,11,39,10.00
2015,08,28,11,40,8.00
2015,08,28,11,41,12.60
2015,08,28,11,42,11.60
2015,08,28,11,43,7.70
2015,08,28,11,44,12.80
2015,08,28,11,45,13.90
2015,08,28,11,46,15.90
2015,08,28,11,47,13.40
2015,08,28,11,48,15.30
2015,08,28,11,49,16.90
2015,08,28,11,50,14.00
2015,08,28,11,51,14.70
2015,08,28,11,52,16.30
2015,08,28,11,53,12.80
2015,08,28,11,54,13.40
2015,08,28,11,55,19.00
2015,08,28,11,56,22.00
2015,08,28,11,57,19.10
2015,08,28,11,58,16.50
2015,08,28,11,59,18.30
2015,08,28,12,00,16.60
2015,08,28,12,01,15.20
2015,08,28,12,02,15.00
2015,08,28,12,03,19.80
2015,08,28,12,04,15.20
2015,08,28,12,05,14.50
2015,08,28,12,06,16.50
2015,08,28,12,07,16.60
2015,08,28,12,08,20.70
2015,08,28,12,09,17.10
2015,08,28,12,10,17.20
2015,08,28,12,11,20.40
2015,08,28,12,12,13.70
2015,08,28,12,13,16.10
2015,08,28,12,14,13.70
2015,08,28,12,15,12.40
2015,08,28,12,16,14.30
2015,08,28,12,17,12.10
2015,08,28,12,18,16.00
2015,08,28,12,19,17.20
2015,08,28,12,20,15.30
2015,08,28,12,21,13.90
2015,08,28,12,22,11.10
2015,08,28,12,23,13.20
2015,08,28,12,24,11.20
2015,08,28,12,25,12.20
2015,08,28,12,26,14.10
2015,08,28,12,27,17.30
2015,08,28,12,28,11.60
2015,08,28,12,29,13.70
2015,08,28,12,30,14.80
2015,08,28,12,31,17.70
2015,08,28,12,32,15.40
2015,08,28,12,33,16.20
2015,08,28,12,34,19.40
2015,08,28,12,35,20.10
2015,08,28,12,36,18.20
2015,08,28,12,37,15.40
2015,08,28,12,38,16.70
2015,08,28,12,39,12.40
2015,08,28,12,40,14.60
2015,08,28,12,41,17.60
2015,08,28,12,42,13.10
2015,08,28,12,43,13.40
2015,08,28,12,44,13.90
2015,08,28,12,45,17.90
2015,08,28,12,46,13.60
2015,08,28,12,47,17.20
2015,08,28,12,48,13.50
2015,08,28,12,49,15.60
2015,08,28,12,50,9.90
2015,08,28,12,51,12.40
2015,08,28,12,52,11.90
2015,08,28,12,53,18.70
2015,08,28,12,54,15.90
2015,08,28,12,55,15.70
2015,08,28,12,56,15.50
2015,08,28,12,57,13.00
2015,08,28,12,58,16.80
2015,08,28,12,59,13.10
2015,08,28,13,00,16.50
2015,08,28,13,01,12.50
2015,08,28,13,02,8.80
2015,08,28,13,03,14.20
2015,08,28,13,04,15.40
2015,08,28,13,05,14.50
2015,08,28,13,06,9.80
2015,08,28,13,07,14.20
2015,08,28,13,08,15.70
2015,08,28,13,09,13.30
2015,08,28,13,10,18.00
2015,08,28,13,11,12.80
2015,08,28,13,12,11.60
2015,08,28,13,13,14.20
2015,08,28,13,14,13.80
2015,08,28,13,15,13.80
2015,08,28,13,16,14.40
2015,08,28,13,17,13.30
2015,08,28,13,18,19.10
2015,08,28,13,19,11.90
2015,08,28,13,20,10.60
2015,08,28,13,21,13.20
2015,08,28,13,22,10.80
2015,08,28,13,23,12.80
2015,08,28,13,24,6.80
2015,08,28,13,25,11.10
2015,08,28,13,26,7.50
2015,08,28,13,27,11.30
2015,08,28,13,28,14.40
2015,08,28,13,29,9.60
2015,08,28,13,30,15.00
2015,08,28,13,31,10.50
2015,08,28,13,32,8.40
2015,08,28,13,33,18.50
2015,08,28,13,34,17.90
2015,08,28,13,35,20.10
2015,08,28,13,36,20.00
2015,08,28,13,37,18.50
2015,08,28,13,38,14.20
2015,08,28,13,39,16.20
2015,08,28,13,40,11.70
2015,08,28,13,41,14.90
2015,08,28,13,42,16.10
2015,08,28,13,43,22.10
2015,08,28,13,44,19.70
2015,08,28,13,45,19.50
2015,08,28,13,46,15.20
2015,08,28,13,47,18.40
2015,08,28,13,48,13.90
2015,08,28,13,49,14.70
2015,08,28,13,50,17.50
2015,08,28,13,51,14.50
2015,08,28,13,52,19.10
2015,08,28,13,53,16.60
2015,08,28,13,54,12.80
2015,08,28,13,55,14.80
2015,08,28,13,56,13.80
2015,08,28,13,57,15.00
2015,08,28,13,58,18.60
2015,08,28,13,59,13.10
2015,08,28,14,00,11.10
2015,08,28,14,01,12.70
2015,08,28,14,02,15.70
2015,08,28,14,03,13.40
2015,08,28,14,04,18.20
2015,08,28,14,05,14.60
2015,08,28,14,06,16.00
2015,08,28,14,07,10.40
2015,08,28,14,08,7.20
2015,08,28,14,09,11.80
2015,08,28,14,10,17.00
2015,08,28,14,11,16.20
2015,08,28,14,12,11.60
2015,08,28,14,13,13.50
2015,08,28,14,14,15.40
2015,08,28,14,15,15.30
2015,08,28,14,16,14.90
2015,08,28,14,17,12.20
2015,08,28,14,18,11.10
2015,08,28,14,19,9.50
2015,08,28,14,20,6.60
2015,08,28,14,21,5.80
2015,08,28,14,22,10.60
2015,08,28,14,23,5.80
2015,08,28,14,24,8.10
2015,08,28,14,25,7.60
2015,08,28,14,26,4.70
2015,08,28,14,27,4.60
2015,08,28,14,28,4.70
2015,08,28,14,29,5.60
2015,08,28,14,30,9.80
2015,08,28,14,31,8.50
2015,08,28,14,32,8.50
2015,08,28,14,33,13.00
2015,08,28,14,34,13.40
2015,08,28,14,35,9.20
2015,08,28,14,36,7.50
2015,08,28,14,37,11.60
2015,08,28,14,38,13.20
2015,08,28,14,39,14.00
2015,08,28,14,40,11.10
2015,08,28,14,41,11.10
2015,08,28,14,42,11.00
2015,08,28,14,43,6.20
2015,08,28,14,44,3.20
2015,08,28,14,45,12.40
2015,08,28,14,46,18.40
2015,08,28,14,47,13.40
2015,08,28,14,48,15.70
2015,08,28,14,49,13.90
2015,08,28,14,50,13.90
2015,08,28,14,51,12.80
2015,08,28,14,52,13.80
2015,08,28,14,53,10.90
2015,08,28,14,54,12.10
2015,08,28,14,55,14.80
2015,08,28,14,56,11.60
2015,08,28,14,57,12.50
2015,08,28,14,58,16.10
2015,08,28,14,59,13.50
2015,08,28,15,00,17.50
2015,08,28,15,01,14.70
2015,08,28,15,02,15.10
2015,08,28,15,03,12.90
2015,08,28,15,04,11.80
2015,08,28,15,05,14.20
2015,08,28,15,06,12.80
2015,08,28,15,07,11.30
2015,08,28,15,08,8.20
2015,08,28,15,09,4.70
2015,08,28,15,10,16.90
2015,08,28,15,11,13.20
2015,08,28,15,12,13.90
2015,08,28,15,13,13.80
2015,08,28,15,14,13.70
2015,08,28,15,15,10.20
2015,08,28,15,16,11.50
2015,08,28,15,17,12.20
2015,08,28,15,18,9.80
2015,08,28,15,19,8.90
2015,08,28,15,20,15.00
2015,08,28,15,21,13.50
2015,08,28,15,22,18.90
2015,08,28,15,23,8.40
2015,08,28,15,24,15.10
2015,08,28,15,25,15.60
2015,08,28,15,26,10.30
2015,08,28,15,27,11.00
2015,08,28,15,28,11.00
2015,08,28,15,29,10.70
2015,08,28,15,30,12.50
2015,08,28,15,31,17.60
2015,08,28,15,32,13.70
2015,08,28,15,33,16.70
2015,08,28,15,34,9.30
2015,08,28,15,35,11.00
2015,08,28,15,36,11.20
2015,08,28,15,37,16.60
2015,08,28,15,38,17.80
2015,08,28,15,39,15.50
2015,08,28,15,40,8.20
2015,08,28,15,41,19.20
2015,08,28,15,42,15.40
2015,08,28,15,43,18.50
2015,08,28,15,44,19.40
2015,08,28,15,45,11.60
2015,08,28,15,46,16.50
2015,08,28,15,47,15.70
2015,08,28,15,48,13.20
2015,08,28,15,49,8.40
2015,08,28,15,50,15.40
2015,08,28,15,51,12.40
2015,08,28,15,52,11.70
2015,08,28,15,53,9.70
2015,08,28,15,54,9.00
2015,08,28,15,55,9.10
2015,08,28,15,56,9.70
2015,08,28,15,57,8.20
2015,08,28,15,58,10.40
2015,08,28,15,59,13.40
2015,08,28,16,00,13.50
2015,08,28,16,01,15.80
2015,08,28,16,02,8.50
2015,08,28,16,03,11.10
2015,08,28,16,04,9.80
2015,08,28,16,05,11.00
2015,08,28,16,06,7.70
2015,08,28,16,07,10.10
2015,08,28,16,08,14.90
2015,08,28,16,09,11.10
2015,08,28,16,10,6.50
2015,08,28,16,11,11.90
2015,08,28,16,12,9.90
2015,08,28,16,13,6.20
2015,08,28,16,14,7.80
2015,08,28,16,15,10.60
2015,08,28,16,16,15.10
2015,08,28,16,17,16.20
2015,08,28,16,18,9.40
2015,08,28,16,19,10.30
2015,08,28,16,20,11.50
2015,08,28,16,21,9.20
2015,08,28,16,22,17.30
2015,08,28,16,23,9.80
2015,08,28,16,24,9.20
2015,08,28,16,25,8.30
2015,08,28,16,26,10.70
2015,08,28,16,27,7.20
2015,08,28,16,28,9.20
2015,08,28,16,29,13.00
2015,08,28,16,30,6.60
2015,08,28,16,31,4.80
2015,08,28,16,32,5.40
2015,08,28,16,33,10.40
2015,08,28,16,34,8.40
2015,08,28,16,35,10.80
2015,08,28,16,36,10.80
2015,08,28,16,37,4.10
2015,08,28,16,38,6.00
2015,08,28,16,39,14.40
2015,08,28,16,40,12.20
2015,08,28,16,41,13.30
2015,08,28,16,42,8.80
2015,08,28,16,43,11.40
2015,08,28,16,44,8.10
2015,08,28,16,45,7.70
2015,08,28,16,46,10.50
2015,08,28,16,47,6.60
2015,08,28,16,48,12.00
2015,08,28,16,49,12.20
2015,08,28,16,50,11.80
2015,08,28,16,51,12.40
2015,08,28,16,52,17.20
2015,08,28,16,53,13.00
2015,08,28,16,54,13.80
2015,08,28,16,55,14.00
2015,08,28,16,56,13.40
2015,08,28,16,57,15.80
2015,08,28,16,58,11.90
2015,08,28,16,59,7.90
2015,08,28,17,00,12.70
2015,08,28,17,01,7.10
2015,08,28,17,02,8.30
2015,08,28,17,03,12.30
2015,08,28,17,04,5.70
2015,08,28,17,05,7.20
2015,08,28,17,06,9.60
2015,08,28,17,07,8.80
2015,08,28,17,08,15.30
2015,08,28,17,09,8.30
2015,08,28,17,10,11.20
2015,08,28,17,11,11.70
2015,08,28,17,12,9.60
2015,08,28,17,13,7.30
2015,08,28,17,14,15.20
2015,08,28,17,15,12.10
2015,08,28,17,16,9.20
2015,08,28,17,17,8.10
2015,08,28,17,18,10.40
2015,08,28,17,19,13.20
2015,08,28,17,20,12.40
2015,08,28,17,21,9.20
2015,08,28,17,22,16.30
2015,08,28,17,23,10.80
2015,08,28,17,24,4.60
2015,08,28,17,25,8.20
2015,08,28,17,26,10.00
2015,08,28,17,27,11.30
2015,08,28,17,28,18.60
2015,08,28,17,29,15.80
2015,08,28,17,30,7.90
2015,08,28,17,31,9.10
2015,08,28,17,32,4.90
2015,08,28,17,33,10.70
2015,08,28,17,34,13.70
2015,08,28,17,35,8.80
2015,08,28,17,36,10.80
2015,08,28,17,37,9.00
2015,08,28,17,38,8.40
2015,08,28,17,39,10.50
2015,08,28,17,40,10.30
2015,08,28,17,41,13.70
2015,08,28,17,42,7.10
2015,08,28,17,43,6.70
2015,08,28,17,44,9.00
2015,08,28,17,45,6.40
2015,08,28,17,46,6.40
2015,08,28,17,47,11.90
2015,08,28,17,48,9.40
2015,08,28,17,49,8.60
2015,08,28,17,50,8.90